HARMALA Weather Reports


Display with metric or nautical units.
time (UTC)temp
F
wind
direction
speed
MPH
gust
MPH
rain 1hr
in
rain 24hr
in
rain mn
in
humidity
%
barometer
mb
20260502184706 57 0.0 0.0 0.00 0.00 0.00 38 1006.6
20260502182706 58 0.0 0.0 0.00 0.00 0.00 37 1006.5
20260502180705 59 0.0 0.0 0.00 0.00 0.00 36 1006.4
20260502162705 62 0.0 0.0 0.00 0.00 0.00 31 1006.7
20260502160705 63 0.0 0.0 0.00 0.00 0.00 30 1006.7
20260502150705 64 0.0 0.0 0.00 0.00 0.00 30 1007.0
20260502130705 65 0.0 0.0 0.00 0.00 0.00 29 1007.1
20260502122705 66 0.0 0.0 0.00 0.00 0.00 25 1007.0
20260502120705 67 0.0 0.0 0.00 0.00 0.00 25 1007.2
20260502114705 66 0.0 0.0 0.00 0.00 0.00 25 1007.3
20260502112705 66 0.0 0.0 0.00 0.00 0.00 26 1007.2
20260502110705 66 0.0 0.0 0.00 0.00 0.00 27 1007.4
20260502104704 67 0.0 0.0 0.00 0.00 0.00 28 1007.4
20260502102704 65 0.0 0.0 0.00 0.00 0.00 31 1007.5
20260502100704 67 0.0 0.0 0.00 0.00 0.00 31 1007.5
20260502090704 65 0.0 0.0 0.00 0.00 0.00 34 1007.9
20260502070703 59 0.0 0.0 0.00 0.00 0.00 45 1008.7
20260502064703 57 0.0 0.0 0.00 0.00 0.00 48 1008.8
20260502062703 56 0.0 0.0 0.00 0.00 0.00 52 1009.0
20260502060703 54 0.0 0.0 0.00 0.00 0.00 55 1009.2
20260502054703 53 0.0 0.0 0.00 0.00 0.00 59 1009.4
20260502052703 51 0.0 0.0 0.00 0.00 0.00 62 1009.4
20260502050703 49 0.0 0.0 0.00 0.00 0.00 65 1009.6
20260502044703 48 0.0 0.0 0.00 0.00 0.00 68 1009.8
20260502042703 47 0.0 0.0 0.00 0.00 0.00 72 1009.9
20260502040703 46 0.0 0.0 0.00 0.00 0.00 76 1010.1
20260502034703 42 0.0 0.0 0.00 0.00 0.00 79 1010.5
20260502032702 37 0.0 0.0 0.00 0.00 0.00 90 1010.8
20260502030703 36 0.0 0.0 0.00 0.00 0.00 91 1010.9
20260502024703 36 0.0 0.0 0.00 0.00 0.00 90 1010.9
20260502022703 36 0.0 0.0 0.00 0.00 0.00 88 1011.2
20260502020702 36 0.0 0.0 0.00 0.00 0.00 89 1011.5
20260502014703 36 0.0 0.0 0.00 0.00 0.00 87 1011.8
20260502012703 36 0.0 0.0 0.00 0.00 0.00 88 1012.1
20260502010703 37 0.0 0.0 0.00 0.00 0.00 86 1012.3
20260502004702 37 0.0 0.0 0.00 0.00 0.00 85 1012.6
20260502002702 38 0.0 0.0 0.00 0.00 0.00 84 1012.9
20260502000702 38 0.0 0.0 0.00 0.00 0.00 85 1013.1
20260501234702 38 0.0 0.0 0.00 0.00 0.00 83 1013.1
20260501232702 39 0.0 0.0 0.00 0.00 0.00 81 1013.2
20260501230702 39 0.0 0.0 0.00 0.00 0.00 80 1013.3
20260501224702 40 0.0 0.0 0.00 0.00 0.00 81 1013.4
20260501222702 41 0.0 0.0 0.00 0.00 0.00 77 1013.4
20260501220702 41 0.0 0.0 0.00 0.00 0.00 76 1013.6
20260501214702 42 0.0 0.0 0.00 0.00 0.00 75 1013.8
20260501212701 43 0.0 0.0 0.00 0.00 0.00 74 1014.1
20260501210701 44 0.0 0.0 0.00 0.00 0.00 70 1014.3
20260501204701 45 0.0 0.0 0.00 0.00 0.00 68 1014.3
20260501202702 47 0.0 0.0 0.00 0.00 0.00 66 1014.3
20260501200701 48 0.0 0.0 0.00 0.00 0.00 61 1014.4
20260501194701 49 0.0 0.0 0.00 0.00 0.00 60 1014.5
20260501192701 51 0.0 0.0 0.00 0.00 0.00 56 1014.6
20260501190701 55 0.0 0.0 0.00 0.00 0.00 50 1014.6